This is the latest recevied weather packets stored in our database for station/object WA7ABU-29. If no packets are shown the sender has not sent any weather packets the latest 10 day(s).
| Time | Temp. | Humidity | Pressure | Rain* | Wind** | Luminosity | Snow |
|---|---|---|---|---|---|---|---|
| 1776985062 | 12.22° C | 65% | 1002.7 hPa | 0 mm | - | - | - |
| 1776984691 | 11.67° C | 66% | 1002.7 hPa | 0 mm | - | - | - |
| 1776984443 | 11.67° C | 66% | 1003 hPa | 0 mm | - | - | - |
| 1776984319 | 11.67° C | 61% | 1003 hPa | 0 mm | - | - | - |
| 1776983948 | 11.67° C | 62% | 1003 hPa | 0 mm | - | - | - |
| 1776983017 | 12.22° C | 63% | 1003 hPa | 0 mm | - | - | - |
| 1776981778 | 11.67° C | 64% | 1003.4 hPa | 0 mm | - | - | - |
| 1776981654 | 11.67° C | 69% | 1003.4 hPa | 0 mm | - | - | - |
| 1776980878 | 11.67° C | 65% | 1003.4 hPa | 0 mm | - | - | - |
| 1776980630 | 11.67° C | 69% | 1003.4 hPa | 0 mm | - | - | - |
| 1776979832 | 11.67° C | 69% | 1003.7 hPa | 0 mm | - | - | - |
| 1776979451 | 12.22° C | 66% | 1003.7 hPa | 0 mm | - | - | - |
| 1776979328 | 12.22° C | 66% | 1003.4 hPa | 0 mm | - | - | - |
| 1776979080 | 11.67° C | 65% | 1003.7 hPa | 0 mm | - | - | - |
| 1776978149 | 11.67° C | 66% | 1004.1 hPa | 0 mm | - | - | - |
| 1776977902 | 11.67° C | 65% | 1004.1 hPa | 0 mm | - | - | - |
| 1776976409 | 10.56° C | 67% | 1004.1 hPa | 0 mm | - | - | - |
| 1776974864 | 10.56° C | 70% | 1004.4 hPa | 0 mm | - | - | - |
| 1776974233 | 10.56° C | 69% | 1004.1 hPa | 0 mm | - | - | - |
| 1776973488 | 10.56° C | 71% | 1004.4 hPa | 0 mm | - | - | - |
| 1776973117 | 10.56° C | 68% | 1004.4 hPa | 0 mm | - | - | - |
| 1776972555 | 10° C | 68% | 1004.7 hPa | 0 mm | - | - | - |
| 1776972061 | 10.56° C | 71% | 1004.7 hPa | 0 mm | - | - | - |
| 1776970386 | 10° C | 73% | 1005.1 hPa | 0 mm | - | - | - |
| 1776966167 | 9.44° C | 77% | 1005.4 hPa | 0 mm | - | - | - |
* Rain latest hour (hover to see other rain measurements)
** Current wind speed in m/s (hover to see current wind gust speed)